This demonstration page uses our WeatherBlox Daily Observations layout. Learn more.

Left ArrowRight Arrow

Hourly Observations for June 22, 2021

Temp ( °F °C ) Dew Point ( °F °C ) Humidity (%) Winds ( mph kmh ) Pressure ( in mb ) Visibility ( mi km ) Precip ( " mm )
12:59 am 00:59 Clear 83 28.3 60 15.6 46 46 SSW 8 13 29.75 1007 10 16 0.00 0.00
1:59 am 01:59 Clear 82 27.8 50 10 33 33 SSW 8 13 29.74 1007 10 16 0.00 0.00
2:59 am 02:59 Partly Cloudy 81 27.2 54 12.2 39 39 SSW 9 15 29.74 1007 10 16 0.00 0.00
3:59 am 03:59 Partly Cloudy 80 26.7 49 9.4 34 34 SSW 8 13 29.73 1007 10 16 0.00 0.00
4:59 am 04:59 Partly Cloudy 80 26.7 50 10 35 35 SSW 9 15 29.74 1007 10 16 0.00 0.00
5:59 am 05:59 Partly Cloudy 79 26.1 49 9.4 35 35 SSW 9 15 29.74 1007 8 13 0.00 0.00
6:06 am 06:06 Mostly Sunny 79 26.1 49 9.4 35 35 SSW 10 17 29.74 1007 9 14 0.00 0.00
6:08 am 06:08 Mostly Sunny 79 26.1 49 9.4 35 35 SSW 12 19 29.74 1007 9 14 0.00 0.00
6:59 am 06:59 Mostly Sunny 79 26.1 48 8.9 34 34 SSW 12 19 29.76 1008 9 14 0.00 0.00
7:59 am 07:59 Mostly Cloudy 81 27.2 51 10.6 35 35 SW 13 20 29.77 1008 9 14 0.00 0.00
8:35 am 08:35 Cloudy 81 27.2 49 9.4 33 33 SW 13 20 29.78 1008 9 14 0.00 0.00
8:59 am 08:59 Cloudy 81 27.2 50 10 34 34 SW 12 19 29.77 1008 10 16 0.00 0.00
9:48 am 09:48 Partly Cloudy 83 28.3 52 11.1 34 34 SW 14 22 29.77 1008 10 16 0.00 0.00
9:59 am 09:59 Mostly Cloudy 83 28.3 54 12.2 37 37 SW 13 20 29.77 1008 10 16 0.00 0.00
10:59 am 10:59 Mostly Cloudy 83 28.3 53 11.7 36 36 SW 13 20 29.77 1008 10 16 0.00 0.00
11:59 am 11:59 Mostly Cloudy 86 30 52 11.1 31 31 SW 14 22 29.75 1008 10 16 0.00 0.00
12:59 pm 12:59 Cloudy with Light Rain 81 27.2 53 11.7 38 38 SSW 15 24 29.74 1007 3 5 0.02 0.51
1:03 pm 13:03 Cloudy with Rain 78 25.6 49 9.4 36 36 SSW 20 31 29.75 1007 2 2 0.05 1.27
1:23 pm 13:23 Mostly Cloudy with Haze 80 26.7 50 10 35 35 WSW 15 24 29.74 1007 3 5 0.29 7.37
1:59 pm 13:59 Cloudy with Light Rain 79 26.1 53 11.7 41 41 SW 9 15 29.75 1007 6 10 0.30 7.62
2:47 pm 14:47 Cloudy with Strong Thunderstorms 69 20.6 37 2.8 31 31 NNW 30 48 29.83 1010 1 2 0.13 3.30
2:51 pm 14:51 Cloudy with Strong Thunderstorms 68 20 40 4.4 36 36 NNW 26 43 29.82 1010 1 2 0.17 4.32
2:59 pm 14:59 Cloudy with Strong Thunderstorms 68 20 34 1.1 28 28 NNW 24 39 29.82 1010 1 2 0.27 6.86
3:03 pm 15:03 Cloudy with Heavy Rain 67 19.4 39 3.9 36 36 NNW 15 24 29.82 1010 2 3 0.03 0.76
3:25 pm 15:25 Cloudy 69 20.6 37 2.8 31 31 N 12 19 29.81 1009 10 16 0.05 1.27
3:59 pm 15:59 Cloudy with Light Rain 69 20.6 38 3.3 32 32 NW 9 15 29.81 1010 6 10 0.10 2.54
4:59 pm 16:59 Cloudy 70 21.1 32 0 25 25 NNW 3 6 29.83 1010 10 16 0.03 0.76
5:13 pm 17:13 Mostly Cloudy 70 21.1 35 1.7 28 28 NW 10 17 29.85 1011 10 16 0.00 0.00
5:59 pm 17:59 Cloudy 70 21.1 29 -1.7 22 22 NNW 13 20 29.88 1012 10 16 0.00 0.00
6:59 pm 18:59 Cloudy 70 21.1 30 -1.1 23 23 NNW 14 22 29.91 1013 10 16 0.00 0.00
7:57 pm 19:57 Cloudy 70 21 25 -4 18 18 N 8 13 29.94 1014 10 16 0.00 0.00
7:59 pm 19:59 Cloudy 70 21.1 25 -3.9 18 18 N 8 13 29.94 1014 10 16 0.00 0.00
8:59 pm 20:59 Mostly Cloudy 70 21.1 31 -0.6 23 23 N 7 11 29.97 1015 10 16 0.00 0.00
9:59 pm 21:59 Mostly Cloudy 70 21.1 30 -1.1 23 23 N 10 17 29.99 1016 10 16 0.00 0.00
10:59 pm 22:59 Mostly Cloudy 70 21.1 28 -2.2 21 21 N 9 15 30.02 1017 10 16 0.00 0.00
11:59 pm 23:59 Partly Cloudy 70 21.1 27 -2.8 20 20 NNE 8 13 30.03 1017 10 16 0.00 0.00

Powered by AerisWeather